Total_Precipitation_Accumulation
0.73 0.72 0.70 0.69 0.69 0.67 0.64 0.61 0.57 0.55 0.51 0.48 0.49 0.49 0.46 0.39 0.33 0.31 0.27 0.29 0.32 0.35 0.47 0.67 0.88 1.17 1.46 1.51 1.56 1.44 1.32 1.26 1.13 1.00 0.97 1.10 1.19 1.15 1.09 1.14 1.05 0.88 0.82
0.76 0.74 0.76 0.70 0.67 0.66 0.65 0.62 0.56 0.53 0.50 0.47 0.44 0.40 0.41 0.41 0.38 0.37 0.34 0.34 0.33 0.33 0.39 0.56 0.76 1.00 1.34 1.56 1.68 1.81 1.64 1.51 1.45 1.25 1.04 1.02 1.10 1.14 1.15 1.16 1.21 1.10 0.95
0.92 0.83 0.78 0.74 0.69 0.69 0.70 0.69 0.65 0.56 0.53 0.48 0.44 0.40 0.36 0.35 0.34 0.37 0.39 0.38 0.38 0.36 0.37 0.46 0.61 0.82 1.06 1.36 1.63 1.90 2.03 1.78 1.69 1.63 1.38 1.13 1.10 1.17 1.23 1.26 1.28 1.32 1.19
1.01 1.00 0.90 0.79 0.72 0.74 0.76 0.78 0.75 0.68 0.58 0.53 0.50 0.44 0.38 0.35 0.33 0.32 0.34 0.37 0.40 0.40 0.40 0.43 0.49 0.63 0.85 1.11 1.40 1.72 2.24 2.17 1.96 1.87 1.82 1.50 1.21 1.17 1.21 1.29 1.35 1.39 1.45
1.06 1.08 1.08 0.99 0.86 0.83 0.79 0.77 0.74 0.71 0.66 0.60 0.55 0.52 0.48 0.42 0.37 0.36 0.33 0.31 0.33 0.39 0.42 0.44 0.48 0.53 0.68 0.89 1.18 1.51 2.10 2.40 2.34 2.26 2.20 2.01 1.60 1.31 1.23 1.28 1.38 1.45 1.55
1.08 1.02 1.08 1.12 1.04 0.94 0.88 0.81 0.75 0.68 0.63 0.61 0.62 0.61 0.54 0.49 0.46 0.42 0.38 0.34 0.31 0.33 0.39 0.43 0.47 0.49 0.56 0.73 0.94 1.22 1.63 2.06 2.30 2.44 2.47 2.51 2.30 1.80 1.50 1.41 1.46 1.60 1.69
1.17 1.06 0.99 1.02 1.04 0.98 0.89 0.84 0.81 0.79 0.74 0.68 0.72 0.77 0.72 0.59 0.52 0.48 0.45 0.43 0.39 0.35 0.36 0.40 0.46 0.51 0.54 0.63 0.76 0.92 1.22 1.62 1.98 2.23 2.36 2.48 2.71 2.52 2.04 1.73 1.63 1.71 1.83
1.13 1.15 1.05 0.97 0.93 0.93 0.92 0.86 0.84 0.83 0.83 0.77 0.75 0.82 0.84 0.81 0.64 0.48 0.44 0.44 0.43 0.42 0.41 0.40 0.42 0.49 0.57 0.59 0.61 0.70 0.88 1.21 1.67 2.08 2.32 2.43 2.65 2.91 2.71 2.21 1.94 1.89 1.98
1.08 1.08 1.09 1.03 0.96 0.89 0.89 0.86 0.81 0.79 0.80 0.76 0.68 0.82 0.90 0.78 0.62 0.52 0.44 0.39 0.38 0.41 0.40 0.41 0.41 0.43 0.50 0.58 0.58 0.57 0.62 0.85 1.29 1.75 2.20 2.49 2.68 2.99 3.17 2.90 2.46 2.22 2.24
1.08 1.04 1.03 1.01 1.02 0.95 0.84 0.81 0.81 0.81 0.83 0.83 0.73 0.65 0.68 0.68 0.71 0.61 0.51 0.46 0.42 0.41 0.40 0.40 0.41 0.40 0.44 0.52 0.58 0.58 0.58 0.68 0.97 1.46 1.93 2.46 2.83 3.10 3.51 3.50 3.20 2.76 2.53
1.13 1.05 1.01 0.98 0.96 0.94 0.85 0.79 0.80 0.82 0.84 0.84 0.80 0.70 0.64 0.56 0.56 0.67 0.56 0.49 0.52 0.49 0.46 0.46 0.45 0.44 0.44 0.48 0.52 0.58 0.65 0.73 0.93 1.28 1.71 2.26 2.98 3.30 3.73 3.96 3.62 3.05 2.69
1.20 1.10 1.00 0.95 0.89 0.85 0.83 0.76 0.71 0.73 0.76 0.76 0.74 0.72 0.73 0.70 0.60 0.62 0.60 0.47 0.46 0.48 0.49 0.53 0.55 0.53 0.51 0.52 0.55 0.68 0.74 0.80 0.96 1.20 1.40 1.80 2.42 3.12 3.59 3.93 3.80 3.31 2.89
1.18 1.11 1.03 0.93 0.86 0.81 0.79 0.78 0.74 0.68 0.68 0.72 0.71 0.67 0.65 0.62 0.58 0.63 0.71 0.63 0.54 0.49 0.52 0.54 0.54 0.57 0.58 0.61 0.63 0.73 0.74 0.78 0.86 1.07 1.14 1.24 1.62 2.27 3.03 3.63 3.96 3.74 3.28
1.04 0.99 1.00 0.94 0.84 0.79 0.80 0.81 0.81 0.74 0.70 0.71 0.68 0.67 0.66 0.61 0.62 0.70 0.80 0.88 0.82 0.60 0.53 0.52 0.49 0.50 0.57 0.60 0.61 0.70 0.65 0.73 0.80 0.92 0.98 1.03 1.19 1.56 2.20 2.95 3.75 4.24 3.97
0.99 0.99 1.01 1.00 0.91 0.88 0.87 0.87 0.87 0.80 0.76 0.74 0.73 0.71 0.73 0.68 0.68 0.69 0.75 0.87 1.09 0.98 0.61 0.45 0.45 0.47 0.55 0.61 0.61 0.57 0.56 0.67 0.74 0.82 0.93 0.98 1.07 1.27 1.63 2.21 2.84 3.76 4.37
0.97 0.99 1.04 1.07 1.01 0.94 0.95 0.97 0.92 0.86 0.85 0.81 0.80 0.81 0.77 0.73 0.75 0.78 0.82 0.83 0.90 1.03 0.82 0.45 0.41 0.43 0.52 0.67 0.75 0.65 0.61 0.75 0.78 0.80 0.82 0.86 0.94 1.12 1.37 1.71 2.16 2.76 3.66
0.97 0.94 0.96 1.04 1.08 1.02 0.93 0.99 0.99 0.95 0.93 0.86 0.83 0.85 0.81 0.78 0.86 0.89 0.94 0.93 0.88 0.91 0.94 0.56 0.45 0.49 0.63 0.74 0.81 0.76 0.75 0.74 0.74 0.78 0.80 0.85 0.90 1.03 1.24 1.47 1.71 2.10 2.76
1.01 0.93 0.89 0.97 1.06 1.05 0.96 0.94 0.95 0.94 0.96 0.92 0.88 0.89 0.88 0.85 0.89 0.92 1.00 1.00 0.92 0.86 0.93 0.78 0.60 0.63 0.73 0.82 0.85 0.83 0.82 0.80 0.72 0.75 0.77 0.88 0.94 1.02 1.17 1.34 1.49 1.72 2.12
1.18 1.03 0.95 0.97 1.05 1.11 1.05 0.94 0.95 0.94 0.91 0.87 0.85 0.90 0.93 0.94 0.90 0.90 1.00 1.05 0.99 0.93 0.96 0.96 0.76 0.69 0.78 0.90 1.01 1.00 0.95 0.93 0.82 0.80 0.82 0.90 0.99 1.02 1.08 1.23 1.41 1.57 1.75
1.24 1.17 1.03 0.98 1.04 1.16 1.20 1.17 1.15 1.06 0.97 0.86 0.77 0.79 0.89 1.02 1.04 1.05 1.09 1.08 1.10 1.15 1.14 1.12 0.97 0.85 0.90 0.99 1.13 1.18 1.15 1.09 1.02 0.92 0.96 1.01 1.07 1.10 1.07 1.08 1.15 1.29 1.46
1.11 1.14 1.12 1.04 1.05 1.25 1.48 1.64 1.54 1.24 1.03 0.92 0.76 0.71 0.81 1.05 1.24 1.42 1.47 1.36 1.37 1.50 1.47 1.42 1.30 1.14 1.05 1.10 1.20 1.19 1.26 1.18 1.16 1.11 1.06 1.07 1.02 1.00 0.98 1.00 1.05 1.12 1.22
1.07 1.08 1.09 1.07 1.05 1.22 1.58 1.81 1.49 1.15 1.00 0.93 0.85 0.75 0.80 1.04 1.18 1.31 1.46 1.45 1.49 1.68 1.79 1.74 1.58 1.37 1.07 0.97 1.05 1.24 1.44 1.59 1.52 1.28 1.18 1.19 1.03 1.01 0.97 0.91 1.02 1.11 1.16
1.06 1.05 1.02 1.01 0.98 1.03 1.37 1.60 1.37 1.07 0.96 0.91 0.86 0.81 0.83 0.93 1.06 1.08 1.19 1.23 1.26 1.45 1.70 1.80 1.75 1.37 1.15 1.05 1.24 1.47 1.54 1.66 1.54 1.45 1.47 1.53 1.23 1.12 1.02 1.03 1.14 1.12 1.17
1.04 1.03 1.02 0.98 0.94 0.98 1.25 1.50 1.33 1.06 0.97 0.92 0.91 0.85 0.79 0.83 0.95 1.11 1.19 1.16 1.08 1.16 1.40 1.60 1.79 1.59 1.38 1.40 1.67 1.92 2.02 2.05 1.80 1.67 1.63 1.84 1.52 1.28 1.17 1.13 1.20 1.12 1.10
1.03 1.00 0.98 0.99 0.93 0.92 1.17 1.52 1.40 1.09 1.01 0.95 0.95 0.89 0.79 0.75 0.94 1.11 1.09 1.07 1.00 1.04 1.17 1.38 1.53 1.60 1.62 1.77 2.06 2.45 2.62 2.60 2.34 2.02 1.81 1.84 1.77 1.61 1.56 1.51 1.43 1.31 1.13
0.95 0.97 0.93 0.93 0.90 0.86 1.02 1.42 1.54 1.15 1.04 0.97 0.96 0.92 0.98 0.96 1.06 1.08 1.00 1.06 1.15 1.04 0.99 1.04 1.09 1.14 1.20 1.35 1.76 2.20 2.55 2.66 2.44 2.35 2.04 1.84 1.85 1.87 2.23 2.04 1.68 1.39 1.21